Weather History for KTKC - February, 2014

Change the Weather History Date:

Tuesday, February 18, 2014

  Actual Average (KMML) Record (KMML)
Temperature  
Mean Temperature 36 °F -  
Max Temperature 41 °F 30 °F 60 °F (1981)
Min Temperature 30 °F 13 °F -14 °F (1967)
Degree Days  
Heating Degree Days 30    
Moisture  
Dew Point 27 °F    
Average Humidity 70    
Maximum Humidity 84    
Minimum Humidity 52    
Precipitation  
Precipitation 0.00 in - - ()
Sea Level Pressure  
Sea Level Pressure 29.64 in    
Wind  
Wind Speed 13 mph (West)    
Max Wind Speed 20 mph    
Max Gust Speed 26 mph    
Visibility 10 miles    
Events      
Averages and records for this station are not official NWS values.
T = Trace of Precipitation, MM = Missing Value Source: NWS Daily Summary

Daily Weather History Graph

Daily Weather History Graph

Search for Another Location

Airport or City:

Trip Planner

Search our weather history database for the weather conditions in past years. The results will help you decide how hot, cold, wet, or windy it might be!

Date:

Astronomy

Feb. 18, 2014 Rise Set
Actual Time 7:17 AM CST 5:55 PM CST
Civil Twilight 6:47 AM CST 6:25 PM CST
Nautical Twilight 6:14 AM CST 6:59 PM CST
Astronomical Twilight 5:40 AM CST 7:32 PM CST
Moon 10:00 PM CST (2/18) 8:41 AM CST (2/18)
Length of Visible Light 11h 37m
Length of Day
10h 38m
Waning Gibbous, 87% of the Moon is Illuminated
Feb 18
Waning Gibbous
Feb 22
Last Quarter
Mar 1
New
Mar 8
First Quarter
Mar 16
Full

Hourly Weather History & Observations

Time (CST) Temp. Windchill Dew Point Humidity Pressure Visibility Wind Dir Wind Speed Gust Speed Precip Events Conditions
12:18 AM 39.4 °F 30.4 °F 25.3 °F 57% 29.67 in 10.0 mi SSW 17.3 mph - N/A   Clear
12:38 AM 40.6 °F 32.3 °F 24.3 °F 52% 29.67 in 10.0 mi SSW 16.1 mph - N/A   Clear
12:57 AM 38.7 °F 29.8 °F 24.3 °F 56% 29.66 in 10.0 mi SSW 16.1 mph 20.7 mph N/A   Clear
1:17 AM 37.8 °F 28.3 °F 23.9 °F 57% 29.64 in 10.0 mi SSW 17.3 mph 21.9 mph N/A   Clear
1:38 AM 37.4 °F 28.2 °F 23.5 °F 57% 29.62 in 10.0 mi SSW 16.1 mph 23.0 mph N/A   Clear
1:58 AM 37.4 °F 28.2 °F 23.0 °F 56% 29.62 in 10.0 mi SSW 16.1 mph 24.2 mph N/A   Clear
2:17 AM 36.5 °F 27.0 °F 22.8 °F 58% 29.61 in 10.0 mi SSW 16.1 mph 21.9 mph N/A   Clear
2:37 AM 35.6 °F 24.8 °F 22.6 °F 59% 29.60 in 10.0 mi SSW 19.6 mph 26.5 mph N/A   Clear
2:58 AM 35.8 °F 25.4 °F 22.3 °F 58% 29.58 in 10.0 mi SSW 18.4 mph 24.2 mph N/A   Clear
3:18 AM 34.7 °F 23.7 °F 22.3 °F 61% 29.56 in 10.0 mi SSW 19.6 mph 25.3 mph N/A   Clear
3:38 AM 33.8 °F 23.2 °F 22.3 °F 63% 29.56 in 10.0 mi SSW 17.3 mph - N/A   Clear
3:57 AM 33.4 °F 22.7 °F 22.1 °F 63% 29.55 in 10.0 mi SSW 17.3 mph - N/A   Clear
4:17 AM 32.9 °F 22.4 °F 22.1 °F 65% 29.55 in 10.0 mi SW 16.1 mph - N/A   Clear
4:38 AM 32.4 °F 21.7 °F 22.1 °F 66% 29.55 in 10.0 mi SW 16.1 mph - N/A   Clear
4:57 AM 32.4 °F 21.3 °F 22.1 °F 66% 29.55 in 10.0 mi SW 17.3 mph - N/A   Clear
5:18 AM 32.2 °F 21.4 °F 22.1 °F 66% 29.55 in 10.0 mi SW 16.1 mph - N/A   Clear
5:37 AM 32.2 °F 21.4 °F 22.1 °F 66% 29.53 in 10.0 mi SW 16.1 mph - N/A   Clear
5:57 AM 32.0 °F 22.1 °F 22.1 °F 67% 29.52 in 10.0 mi SW 13.8 mph 19.6 mph N/A   Clear
6:18 AM 32.0 °F 21.6 °F 22.1 °F 67% 29.52 in 10.0 mi SW 15.0 mph - N/A   Clear
6:38 AM 31.6 °F 20.7 °F 22.1 °F 68% 29.51 in 10.0 mi SW 16.1 mph - N/A   Clear
6:57 AM 31.5 °F 22.9 °F 22.1 °F 68% 29.51 in 10.0 mi WSW 10.4 mph - N/A   Clear
7:17 AM 31.5 °F 21.8 °F 22.1 °F 68% 29.51 in 10.0 mi WSW 12.7 mph - N/A   Clear
7:37 AM 31.1 °F 21.9 °F 21.9 °F 69% 29.52 in 10.0 mi WSW 11.5 mph - N/A   Clear
7:58 AM 30.6 °F 20.2 °F 21.9 °F 70% 29.53 in 10.0 mi SW 13.8 mph - N/A   Clear
8:18 AM 32.0 °F 23.0 °F 22.6 °F 68% 29.53 in 10.0 mi SW 11.5 mph - N/A   Clear
8:37 AM 33.4 °F 25.4 °F 23.4 °F 67% 29.53 in 10.0 mi SW 10.4 mph - N/A   Clear
8:57 AM 34.9 °F 25.7 °F 24.6 °F 66% 29.55 in 10.0 mi WSW 13.8 mph - N/A   Clear
9:18 AM 35.2 °F 27.1 °F 25.2 °F 67% 29.55 in 10.0 mi WSW 11.5 mph - N/A   Clear
9:37 AM 36.5 °F 28.7 °F 25.9 °F 65% 29.55 in 10.0 mi WSW 11.5 mph - N/A   Clear
9:57 AM 36.5 °F 31.8 °F 26.4 °F 67% 29.57 in 10.0 mi West 5.8 mph - N/A   Clear
10:18 AM 37.9 °F 32.1 °F 27.1 °F 65% 29.57 in 10.0 mi West 8.1 mph - N/A   Clear
10:37 AM 38.7 °F 32.9 °F 27.5 °F 64% 29.56 in 10.0 mi WSW 8.1 mph - N/A   Clear
10:57 AM 39.7 °F 34.3 °F 27.5 °F 62% 29.56 in 10.0 mi WSW 8.1 mph - N/A   Clear
11:17 AM 39.4 °F 35.2 °F 27.7 °F 63% 29.57 in 10.0 mi West 5.8 mph - N/A   Clear
11:38 AM 39.2 °F 34.2 °F 28.6 °F 66% 29.58 in 10.0 mi West 6.9 mph - N/A   Clear
11:57 AM 40.5 °F 36.5 °F 28.4 °F 62% 29.58 in 10.0 mi WNW 5.8 mph - N/A   Clear
12:17 PM 41.9 °F 37.5 °F 29.1 °F 61% 29.59 in 10.0 mi WNW 6.9 mph - N/A   Clear
12:38 PM 40.1 °F 34.1 °F 30.0 °F 67% 29.59 in 10.0 mi WNW 9.2 mph - N/A   Clear
12:58 PM 40.6 °F 35.4 °F 30.4 °F 67% 29.60 in 10.0 mi WNW 8.1 mph - N/A   Clear
1:18 PM 39.9 °F 33.4 °F 30.6 °F 69% 29.60 in 10.0 mi NW 10.4 mph - N/A   Mostly Cloudy
1:37 PM 41.0 °F 34.3 °F 31.1 °F 68% 29.59 in 10.0 mi NNW 11.5 mph - N/A   Scattered Clouds
1:58 PM 41.9 °F 35.9 °F 32.0 °F 68% 29.60 in 10.0 mi NW 10.4 mph - N/A   Scattered Clouds
2:17 PM 41.5 °F 36.4 °F 32.0 °F 69% 29.60 in 10.0 mi NW 8.1 mph - N/A   Scattered Clouds
2:37 PM 40.1 °F 34.7 °F 32.2 °F 73% 29.60 in 10.0 mi NW 8.1 mph - N/A   Mostly Cloudy
2:57 PM 39.6 °F 34.7 °F 32.4 °F 75% 29.62 in 10.0 mi NW 6.9 mph - N/A   Mostly Cloudy
3:18 PM 40.1 °F 36.1 °F 32.7 °F 75% 29.63 in 10.0 mi WNW 5.8 mph - N/A   Overcast
3:37 PM 39.6 °F 32.5 °F 32.9 °F 77% 29.65 in 10.0 mi NW 11.5 mph - N/A   Overcast
3:57 PM 39.6 °F 33.0 °F 32.4 °F 75% 29.65 in 10.0 mi NW 10.4 mph - N/A   Overcast
4:18 PM 40.1 °F 36.1 °F 32.0 °F 73% 29.67 in 10.0 mi WNW 5.8 mph - N/A   Overcast
4:38 PM 38.5 °F 33.4 °F 32.2 °F 78% 29.68 in 10.0 mi WNW 6.9 mph - N/A   Light Drizzle
4:58 PM 39.2 °F 33.0 °F 32.0 °F 75% 29.70 in 10.0 mi WNW 9.2 mph - N/A   Mostly Cloudy
5:17 PM 38.7 °F 32.9 °F 32.0 °F 77% 29.70 in 10.0 mi WNW 8.1 mph - N/A   Mostly Cloudy
5:38 PM 37.9 °F 30.0 °F 32.0 °F 79% 29.72 in 10.0 mi NW 12.7 mph - N/A   Overcast
5:57 PM 37.9 °F 31.5 °F 32.0 °F 79% 29.73 in 10.0 mi WNW 9.2 mph - N/A   Mostly Cloudy
6:17 PM 37.8 °F 32.5 °F 32.0 °F 80% 29.74 in 10.0 mi West 6.9 mph - N/A   Mostly Cloudy
6:38 PM 37.4 °F 32.8 °F 31.8 °F 80% 29.75 in 10.0 mi West 5.8 mph - N/A   Overcast
6:58 PM 37.0 °F 31.0 °F 31.6 °F 81% 29.76 in 10.0 mi WNW 8.1 mph - N/A   Overcast
7:17 PM 37.4 °F 30.8 °F 31.5 °F 79% 29.77 in 10.0 mi WNW 9.2 mph - N/A   Mostly Cloudy
7:37 PM 36.7 °F 30.5 °F 31.6 °F 82% 29.78 in 10.0 mi WNW 8.1 mph - N/A   Scattered Clouds
7:57 PM 36.7 °F 28.9 °F 30.6 °F 78% 29.79 in 10.0 mi WNW 11.5 mph - N/A   Scattered Clouds
8:17 PM 36.5 °F 30.3 °F 30.4 °F 78% 29.79 in 10.0 mi WNW 8.1 mph - N/A   Clear
8:37 PM 35.8 °F 30.1 °F 30.7 °F 82% 29.80 in 10.0 mi WNW 6.9 mph - N/A   Clear
8:57 PM 35.1 °F 30.1 °F 30.2 °F 82% 29.81 in 10.0 mi West 5.8 mph - N/A   Clear
9:18 PM 34.9 °F 28.3 °F 30.2 °F 83% 29.82 in 10.0 mi West 8.1 mph - N/A   Clear
9:37 PM 34.7 °F 28.1 °F 30.0 °F 83% 29.82 in 10.0 mi West 8.1 mph - N/A   Clear
9:57 PM 34.0 °F 31.0 °F 29.5 °F 84% 29.82 in 10.0 mi West 3.5 mph - N/A   Clear
10:18 PM 33.3 °F 30.2 °F 28.9 °F 84% 29.82 in 10.0 mi West 3.5 mph - N/A   Clear
10:38 PM 32.9 °F 27.5 °F 28.4 °F 84% 29.82 in 10.0 mi West 5.8 mph - N/A   Clear
10:58 PM 32.4 °F 26.9 °F 28.0 °F 84% 29.82 in 10.0 mi West 5.8 mph - N/A   Clear
11:17 PM 32.2 °F 25.0 °F 27.5 °F 83% 29.82 in 10.0 mi WSW 8.1 mph - N/A   Clear
11:38 PM 32.2 °F 25.8 °F 27.1 °F 82% 29.82 in 10.0 mi WSW 6.9 mph - N/A   Clear
11:58 PM 32.2 °F 25.8 °F 27.0 °F 81% 29.82 in 10.0 mi West 6.9 mph - N/A   Scattered Clouds